WetterOnline ( http://www.wetteronline.de )

Wetter aktuell Heiningen

Aktuelles Wetter: Braunschweig/Flughafen (88m)

6-stündlich | Neueste Meldungen
Ortszeit Temperatur Wetter
So, 17.02. 19:00 8.7° C wolkig
So, 17.02. 13:00 14.3° C leicht bewölkt
So, 17.02. 7:00 4.4° C wolkig
So, 17.02. 1:00 6.2° C wolkig
Sa, 16.02. 19:00 9.5° C wolkig
Sa, 16.02. 13:00 13.5° C wolkenlos
Sa, 16.02. 7:00 5.5° C wolkenlos
Sa, 16.02. 1:00 3.0° C wolkenlos
Ortszeit Temperatur Wetter
So, 17.02. 23:00 4.9° C wolkig
So, 17.02. 22:40 4.7° C wolkig
So, 17.02. 22:30 3.4° C wolkig
So, 17.02. 22:20 3.4° C wolkig
So, 17.02. 22:10 4.0° C wolkig
So, 17.02. 22:00 4.1° C wolkig
So, 17.02. 21:50 4.1° C wolkig
So, 17.02. 21:30 6.6° C wolkig
So, 17.02. 21:00 7.4° C wolkig
So, 17.02. 20:30 7.7° C wolkig
So, 17.02. 20:00 7.5° C wolkig
Ortszeit Relative Feuchte Sichtweite
So, 17.02. 19:00 72% 16 km
So, 17.02. 13:00 40% 22 km
So, 17.02. 7:00 73% 18 km
So, 17.02. 1:00 67% 22 km
Sa, 16.02. 19:00 55% 55 km
Sa, 16.02. 13:00 38% 60 km
Sa, 16.02. 7:00 57% 70 km
Sa, 16.02. 1:00 82% 30 km
Ortszeit Relative Feuchte Sichtweite
So, 17.02. 23:00 91% 7 km
So, 17.02. 22:40 96% -
So, 17.02. 22:30 94% 4.0 km
So, 17.02. 22:20 94% -
So, 17.02. 22:10 93% -
So, 17.02. 22:00 93% 4.7 km
So, 17.02. 21:50 93% -
So, 17.02. 21:30 90% 8 km
So, 17.02. 21:00 83% 11 km
So, 17.02. 20:30 79% 14 km
So, 17.02. 20:00 79% 14 km
Ortszeit Niederschlagsmenge Niederschlagsart
So, 17.02. 19:00 0.0 l/m2 in 12 Std. -
So, 17.02. 13:00 0.0 l/m2 in 6 Std. -
So, 17.02. 7:00 0.0 l/m2 in 12 Std. -
So, 17.02. 1:00 0.0 l/m2 in 6 Std. -
Sa, 16.02. 19:00 0.0 l/m2 in 12 Std. -
Sa, 16.02. 13:00 0.0 l/m2 in 6 Std. -
Sa, 16.02. 7:00 0.0 l/m2 in 12 Std. -
Sa, 16.02. 1:00 0.0 l/m2 in 6 Std. -
Ortszeit Niederschlagsmenge Niederschlagsart
So, 17.02. 23:00 0.0 l/m2 in 1 Std. -
So, 17.02. 22:40 keine Meldung -
So, 17.02. 22:30 0.0 l/m2 in 1 Std. -
So, 17.02. 22:20 keine Meldung -
So, 17.02. 22:10 keine Meldung -
So, 17.02. 22:00 0.0 l/m2 in 1 Std. -
So, 17.02. 21:50 keine Meldung -
So, 17.02. 21:30 0.0 l/m2 in 1 Std. -
So, 17.02. 21:00 0.0 l/m2 in 1 Std. -
So, 17.02. 20:30 0.0 l/m2 in 1 Std. -
So, 17.02. 20:00 0.0 l/m2 in 1 Std. -
Ortszeit Stärke Spitze Richtung
km/h Bft. km/h Grad Sektor
So, 17.02. 19:00 4 1 22 120° SO
So, 17.02. 13:00 7 2 18 150° SO
So, 17.02. 7:00 11 2 18 170° S
So, 17.02. 1:00 11 2 18 220° SW
Sa, 16.02. 19:00 7 2 24 220° SW
Sa, 16.02. 13:00 18 3 29 230° SW
Sa, 16.02. 7:00 9 2 19 220° SW
Sa, 16.02. 1:00 4 1 18 210° SW
Ortszeit Stärke Spitze Richtung
km/h Bft. km/h Grad Sektor
So, 17.02. 23:00 7 2 11 140° SO
So, 17.02. 22:40 6 1 - 120° SO
So, 17.02. 22:30 4 1 4 110° O
So, 17.02. 22:20 4 1 - 110° O
So, 17.02. 22:10 4 1 - 130° SO
So, 17.02. 22:00 0 0 11 - -
So, 17.02. 21:50 2 1 - 120° SO
So, 17.02. 21:30 6 1 7 140° SO
So, 17.02. 21:00 6 1 7 160° S
So, 17.02. 20:30 6 1 7 160° S
So, 17.02. 20:00 6 1 9 180° S
Ortszeit Untergrenze Bedeckung Gattung
total tief tief mittel hoch
So, 17.02. 19:00 8400 m 8/8 0/8 - - -
So, 17.02. 13:00 7500 m 8/8 0/8 - - -
So, 17.02. 7:00 9000 m 8/8 0/8 - - -
So, 17.02. 1:00 9000 m 8/8 0/8 - - -
Sa, 16.02. 19:00 10500 m 8/8 0/8 - - -
Sa, 16.02. 13:00 - 0/8 0/8 - - -
Sa, 16.02. 7:00 - 0/8 0/8 - - -
Sa, 16.02. 1:00 - 0/8 0/8 - - -
Ortszeit Bedeckungsgrad in Achtel und Wolkenuntergrenze
So, 17.02. 23:00 8(8400m) 8(9000m) 8(10500m)
So, 17.02. 22:40 8(8400m) 8(10500m) 8(10500m)
So, 17.02. 22:30 7(8700m) 8(9000m) 8(10500m)
So, 17.02. 22:20 7(8700m) 8(9000m) 8(10500m)
So, 17.02. 22:10 8(8400m) 8(9000m) 8(10500m)
So, 17.02. 22:00 8(8400m) 8(9000m) 8(9000m)
So, 17.02. 21:50 8(8400m) 8(9000m) 8(9000m)
So, 17.02. 21:30 8(8400m) 8(9000m) 8(10500m)
So, 17.02. 21:00 8(8400m) 8(9000m) 8(10500m)
So, 17.02. 20:30 8(8400m) 8(9000m) 8(10500m)
So, 17.02. 20:00 8(8400m) 8(9000m) 8(9000m)
Ortszeit Luftdruck NN (hPa) Tendenz (hPa in 3 Std.)
So, 17.02. 19:00 1021 - 0,5
So, 17.02. 13:00 1023 - 1,5
So, 17.02. 7:00 1025 - 0,3
So, 17.02. 1:00 1026 + 0,3
Sa, 16.02. 19:00 1025 + 0,3
Sa, 16.02. 13:00 1026 - 0,2
Sa, 16.02. 7:00 1026 - 0,9
Sa, 16.02. 1:00 1029 - 1,1
Ortszeit Luftdruck NN (hPa) Tendenz (hPa in 3 Std.)
So, 17.02. 23:00 1021 + 0,1
So, 17.02. 22:40 1021 keine Meldung
So, 17.02. 22:30 1021 - 0,1
So, 17.02. 22:20 1021 keine Meldung
So, 17.02. 22:10 1021 keine Meldung
So, 17.02. 22:00 1021 0,0
So, 17.02. 21:50 1021 keine Meldung
So, 17.02. 21:30 1021 - 0,2
So, 17.02. 21:00 1021 - 0,3
So, 17.02. 20:30 1021 - 0,3
So, 17.02. 20:00 1021 - 0,3
Ortszeit Schneehöhe (cm)
So, 17.02. 19:00 0
So, 17.02. 13:00 0
So, 17.02. 7:00 0
So, 17.02. 1:00 0
Sa, 16.02. 19:00 0
Sa, 16.02. 13:00 0
Sa, 16.02. 7:00 0
Sa, 16.02. 1:00 0
Ortszeit Schneehöhe (cm)
So, 17.02. 23:00 0
So, 17.02. 22:40 0
So, 17.02. 22:30 0
So, 17.02. 22:20 0
So, 17.02. 22:10 0
So, 17.02. 22:00 0
So, 17.02. 21:50 0
So, 17.02. 21:30 0
So, 17.02. 21:00 0
So, 17.02. 20:30 0
So, 17.02. 20:00 0
Link zu dieser Seite / Seite empfehlen

Das Wetter in ...